Date String (YYYY-MM-DD hh:mm:ss) UTC,Instrument flags,Ambient pressure (hPa),Sample flow (lpm),Bypass flow (lpm),Sample temperature (°C),Ambient temperature (°C),ASC tube jacket temperature (°C),LED temperature (°C),Box temperature (°C),Sample RH (%),Span deviation,Mass concentration (μg/m³),Mass concentration (μg/m³),Mass concentration (μg/m³)
DateTimeUTC,F1_M11,P_M11,Q1_M11,Q2_M11,T1_M11,T2_M11,T3_M11,T4_M11,T5_M11,U1_M11,ZSPAN_M11,X0_M11,X2_M11,X1_M11
2022-12-19 22:00:00,,0824.9,5.01,0.00,22.1,20.8,00.0,30.9,23.7,04.8,0000.0,0005.89,0001.34,0000.90
2022-12-19 22:01:00,,0824.8,5.04,0.00,22.1,20.7,00.0,30.9,23.7,04.7,0000.0,0005.75,0001.37,0000.91
2022-12-19 22:02:00,,0824.7,4.94,0.00,22.0,20.6,00.0,30.9,23.7,04.9,0000.0,0004.37,0001.32,0000.90
2022-12-19 22:03:00,,0824.8,5.03,0.00,22.0,20.5,00.0,30.9,23.7,05.0,0000.0,0003.42,0001.34,0000.91
2022-12-19 22:04:00,,0824.9,5.03,0.00,22.0,20.5,00.0,30.9,23.6,04.8,0000.0,0003.51,0001.38,0000.91
2022-12-19 22:05:00,,0824.9,4.95,0.00,22.0,20.4,00.0,30.8,23.6,04.8,0000.0,0003.33,0001.36,0000.91
2022-12-19 22:06:00,,0824.9,5.03,0.00,21.9,20.3,00.0,30.8,23.5,04.8,0000.0,0003.30,0001.35,0000.91
2022-12-19 22:07:00,,0824.9,5.02,0.00,21.9,20.2,00.0,30.8,23.5,04.8,0000.0,0003.20,0001.35,0000.90
2022-12-19 22:08:00,,0825.0,4.97,0.00,21.9,20.7,00.0,30.8,23.6,04.8,0000.0,0007.89,0001.38,0000.90
2022-12-19 22:09:00,,0825.1,5.03,0.00,22.0,21.9,00.0,30.8,23.9,04.9,0000.0,0007.90,0001.38,0000.89
2022-12-19 22:10:00,,0825.1,4.97,0.00,22.1,22.4,00.0,30.8,24.1,04.9,0000.0,0007.82,0001.40,0000.90
2022-12-19 22:11:00,,0825.1,4.96,0.00,22.2,22.0,00.0,30.9,24.1,04.9,0000.0,0007.72,0001.40,0000.92
2022-12-19 22:12:00,,0824.9,5.04,0.00,22.2,21.6,00.0,30.9,24.0,04.8,0000.0,0007.60,0001.36,0000.92
2022-12-19 22:13:00,,0825.0,5.00,0.00,22.2,21.3,00.0,30.9,24.0,04.8,0000.0,0007.57,0001.36,0000.92
2022-12-19 22:14:00,,0825.1,4.98,0.00,22.2,21.1,00.0,30.9,23.9,04.8,0000.0,0007.55,0001.36,0000.93
2022-12-19 22:15:00,,0825.1,5.03,0.00,22.1,20.9,00.0,30.9,23.8,04.9,0000.0,0007.48,0001.33,0000.94
2022-12-19 22:16:00,,0825.0,4.95,0.00,22.1,20.7,00.0,30.9,23.8,04.9,0000.0,0007.52,0001.35,0000.94
2022-12-19 22:17:00,,0825.1,5.03,0.00,22.1,20.6,00.0,30.9,23.7,04.9,0000.0,0007.71,0001.39,0000.95
2022-12-19 22:18:00,,0825.2,5.02,0.00,22.0,20.6,00.0,30.9,23.7,04.9,0000.0,0008.01,0001.50,0000.96
2022-12-19 22:19:00,,0825.1,4.95,0.00,22.0,20.5,00.0,30.9,23.6,04.9,0000.0,0003.68,0001.46,0000.96
2022-12-19 22:20:00,,0825.2,5.02,0.00,22.0,20.4,00.0,30.9,23.6,04.9,0000.0,0003.39,0001.48,0000.98
2022-12-19 22:21:00,,0825.2,5.03,0.00,21.9,20.3,00.0,30.9,23.5,05.0,0000.0,0003.66,0001.56,0001.00
2022-12-19 22:22:00,,0825.3,4.95,0.00,21.9,20.3,00.0,30.8,23.5,04.9,0000.0,0004.31,0001.58,0001.00
2022-12-19 22:23:00,,0825.3,5.02,0.00,21.9,20.2,00.0,30.8,23.4,05.0,0000.0,0004.41,0001.55,0001.00
2022-12-19 22:24:00,,0825.3,5.03,0.00,21.8,20.2,00.0,30.8,23.4,05.0,0000.0,0004.42,0001.53,0001.00
2022-12-19 22:25:00,,0825.3,4.95,0.00,21.8,20.6,00.0,30.8,23.6,04.9,0000.0,0004.76,0001.51,0001.00
2022-12-19 22:26:00,,0825.2,5.04,0.00,21.9,21.7,00.0,30.7,23.9,04.9,0000.0,0004.91,0001.52,0000.99
2022-12-19 22:27:00,,0825.4,4.97,0.00,22.1,22.3,00.0,30.8,24.1,04.8,0000.0,0005.60,0001.53,0000.98
2022-12-19 22:28:00,,0825.4,5.04,0.00,22.1,22.0,00.0,30.9,24.1,04.7,0000.0,0005.67,0001.51,0000.99
2022-12-19 22:29:00,,0825.4,4.97,0.00,22.2,21.7,00.0,30.9,24.0,04.7,0000.0,0005.02,0001.41,0000.99
2022-12-19 22:30:00,,0825.3,5.02,0.00,22.1,21.4,00.0,30.9,23.9,04.7,0000.0,0004.60,0001.38,0000.99
2022-12-19 22:31:00,,0825.4,4.97,0.00,22.1,21.1,00.0,30.9,23.8,04.6,0000.0,0004.54,0001.34,0000.98
2022-12-19 22:32:00,,0825.4,5.04,0.00,22.1,20.9,00.0,30.9,23.8,04.6,0000.0,0004.39,0001.23,0000.95
2022-12-19 22:33:00,,0825.4,4.94,0.00,22.1,20.8,00.0,30.9,23.8,04.7,0000.0,0004.42,0001.19,0000.95
2022-12-19 22:34:00,,0825.4,5.04,0.00,22.1,20.7,00.0,30.9,23.8,04.6,0000.0,0004.27,0001.19,0000.94
2022-12-19 22:35:00,,0825.5,5.01,0.00,22.0,20.5,00.0,30.9,23.7,04.7,0000.0,0004.19,0001.18,0000.93
2022-12-19 22:36:00,,0825.5,4.95,0.00,22.0,20.5,00.0,30.9,23.6,04.7,0000.0,0003.73,0001.15,0000.91
2022-12-19 22:37:00,,0825.5,5.04,0.00,22.0,20.4,00.0,30.9,23.7,04.7,0000.0,0004.36,0001.14,0000.90
2022-12-19 22:38:00,,0825.4,5.02,0.00,22.0,20.4,00.0,30.9,23.6,04.7,0000.0,0004.02,0001.13,0000.91
2022-12-19 22:39:00,,0825.4,4.96,0.00,21.9,20.3,00.0,30.9,23.6,04.7,0000.0,0003.64,0001.10,0000.90
2022-12-19 22:40:00,,0825.5,5.03,0.00,21.9,20.3,00.0,30.8,23.5,04.7,0000.0,0004.29,0001.12,0000.89
2022-12-19 22:41:00,,0825.5,5.03,0.00,21.9,20.3,00.0,30.8,23.5,04.8,0000.0,0004.85,0001.15,0000.89
2022-12-19 22:42:00,,0825.5,4.96,0.00,21.9,21.1,00.0,30.8,23.7,04.8,0000.0,0004.79,0001.14,0000.89
2022-12-19 22:43:00,,0825.6,5.04,0.00,22.0,22.1,00.0,30.8,24.0,04.8,0000.0,0004.72,0001.15,0000.89
2022-12-19 22:44:00,,0825.5,4.96,0.00,22.1,22.1,00.0,30.8,24.1,04.7,0000.0,0003.91,0001.14,0000.88
2022-12-19 22:45:00,,0825.5,5.04,0.00,22.1,21.7,00.0,30.9,24.0,04.7,0000.0,0003.93,0001.15,0000.88
2022-12-19 22:46:00,,0825.5,4.97,0.00,22.1,21.4,00.0,30.9,24.0,04.6,0000.0,0004.05,0001.16,0000.89
2022-12-19 22:47:00,,0825.5,5.03,0.00,22.1,21.1,00.0,30.9,23.9,04.7,0000.0,0004.15,0001.19,0000.88
2022-12-19 22:48:00,,0825.6,4.95,0.00,22.1,20.9,00.0,30.9,23.8,04.8,0000.0,0004.11,0001.21,0000.89
2022-12-19 22:49:00,,0825.6,5.03,0.00,22.1,20.7,00.0,30.9,23.7,04.9,0000.0,0004.88,0001.22,0000.88
2022-12-19 22:50:00,,0825.6,5.00,0.00,22.0,20.6,00.0,30.9,23.6,04.9,0000.0,0005.48,0001.28,0000.87
2022-12-19 22:51:00,,0825.6,4.96,0.00,22.0,20.5,00.0,30.9,23.6,04.9,0000.0,0005.25,0001.28,0000.87
2022-12-19 22:52:00,,0825.6,5.03,0.00,22.0,20.3,00.0,30.9,23.5,04.9,0000.0,0004.43,0001.28,0000.87
2022-12-19 22:53:00,,0825.7,5.01,0.00,21.9,20.3,00.0,30.9,23.5,04.9,0000.0,0004.45,0001.29,0000.87
2022-12-19 22:54:00,,0825.7,4.97,0.00,21.9,20.3,00.0,30.8,23.5,04.9,0000.0,0004.54,0001.30,0000.86
2022-12-19 22:55:00,,0825.7,5.02,0.00,21.9,20.2,00.0,30.8,23.5,04.8,0000.0,0004.58,0001.28,0000.86
2022-12-19 22:56:00,,0825.7,4.98,0.00,21.8,20.2,00.0,30.8,23.5,04.9,0000.0,0004.63,0001.29,0000.86
2022-12-19 22:57:00,,0825.6,5.00,0.00,21.8,20.6,00.0,30.8,23.6,04.8,0000.0,0004.63,0001.31,0000.85
2022-12-19 22:58:00,,0825.7,5.02,0.00,21.9,21.7,00.0,30.7,23.9,04.7,0000.0,0004.72,0001.32,0000.85
2022-12-19 22:59:00,,0825.7,4.99,0.00,22.1,22.2,00.0,30.8,24.1,04.9,0000.0,0004.67,0001.32,0000.85
